GPS BIIR-4 (PRN 20)

Last updated on Sun Dec 07 2025 00:03:18 GMT+0000 (Coordinated Universal Time)

1 26360U 00025A 25340.26868501 -.00000078 00000+0 00000+0 0 9998 2 26360 55.0413 27.0997 0038825 241.3684 224.0568 2.00568091187403
UTC large
Height (km)
Speed (km/s)
/
Latitude / Longitude
Inclination (degrees)
Orbital Period (minutes)
Azimuth
Elevation
Range (km)
Doppler Factor

Next 0 passes for location: London (51.5072 / 0.1276)

Sorry there are no passes over London.